Previsão horária em Barnstable

Hoje, 23 Julho, Sexta-feira

Tempo Temperatura Precipitação Vento Pressão Humidade
00:00 +21°C° 0.1 mm 3 m/s 762 mmHg 71%
01:00 +21°C° 0 mm 3 m/s 761 mmHg 73%
02:00 +21°C° 0.1 mm 3 m/s 761 mmHg 72%
03:00 +20°C° 0.1 mm 3 m/s 761 mmHg 71%
04:00 +20°C° 0.1 mm 3 m/s 761 mmHg 70%
05:00 +21°C° 0 mm 3 m/s 762 mmHg 69%
06:00 +21°C° 0 mm 3 m/s 762 mmHg 68%
07:00 +22°C° 0 mm 3 m/s 762 mmHg 66%
08:00 +24°C° 0 mm 3 m/s 763 mmHg 59%
09:00 +25°C° 0 mm 3 m/s 763 mmHg 53%
10:00 +27°C° 0 mm 3 m/s 763 mmHg 47%
11:00 +27°C° 0 mm 3 m/s 763 mmHg 47%
12:00 +27°C° 0 mm 3 m/s 763 mmHg 46%
13:00 +27°C° 0 mm 3 m/s 762 mmHg 45%
14:00 +25°C° 0 mm 3 m/s 762 mmHg 54%
15:00 +22°C° 0 mm 3 m/s 762 mmHg 62%
16:00 +20°C° 0 mm 2 m/s 762 mmHg 71%
17:00 +20°C° 0 mm 2 m/s 763 mmHg 71%
18:00 +21°C° 0 mm 1 m/s 763 mmHg 70%
19:00 +21°C° 0 mm 1 m/s 763 mmHg 70%
20:00 +21°C° 0 mm 1 m/s 763 mmHg 73%
21:00 +20°C° 0 mm 1 m/s 763 mmHg 75%
22:00 +20°C° 0 mm 1 m/s 763 mmHg 78%
23:00 +19°C° 0.2 mm 1 m/s 763 mmHg 81%

Amanhã, 24 Julho, Sábado

Tempo Temperatura Precipitação Vento Pressão Humidade
00:00 +19°C° 0.2 mm 1 m/s 763 mmHg 84%
01:00 +18°C° 0.2 mm 1 m/s 763 mmHg 87%
02:00 +18°C° 0 mm 1 m/s 763 mmHg 87%
03:00 +18°C° 0 mm 1 m/s 763 mmHg 87%
04:00 +16°C° 0 mm 1 m/s 763 mmHg 88%
05:00 +18°C° 0.1 mm 1 m/s 763 mmHg 85%
06:00 +20°C° 0.1 mm 1 m/s 763 mmHg 82%
07:00 +21°C° 0.1 mm 1 m/s 764 mmHg 79%
08:00 +22°C° 0.2 mm 1 m/s 764 mmHg 76%
09:00 +23°C° 0.2 mm 1 m/s 764 mmHg 72%
10:00 +24°C° 0.2 mm 2 m/s 764 mmHg 69%
11:00 +25°C° 0.1 mm 2 m/s 764 mmHg 67%
12:00 +25°C° 0.1 mm 2 m/s 764 mmHg 64%
13:00 +25°C° 0.1 mm 2 m/s 764 mmHg 62%
14:00 +25°C° 0.1 mm 3 m/s 763 mmHg 60%
15:00 +25°C° 0.1 mm 3 m/s 763 mmHg 58%
16:00 +25°C° 0.1 mm 3 m/s 763 mmHg 57%
17:00 +24°C° 0 mm 3 m/s 763 mmHg 64%
18:00 +22°C° 0 mm 3 m/s 763 mmHg 71%
19:00 +20°C° 0 mm 3 m/s 763 mmHg 78%
20:00 +20°C° 0 mm 3 m/s 763 mmHg 81%
21:00 +19°C° 0 mm 3 m/s 763 mmHg 83%
22:00 +19°C° 0 mm 4 m/s 763 mmHg 86%
23:00 +19°C° 0 mm 4 m/s 763 mmHg 86%

Depois de amanhã, 25 Julho, Domingo

Tempo Temperatura Precipitação Vento Pressão Humidade
00:00 +19°C° 0 mm 4 m/s 762 mmHg 87%
01:00 +19°C° 0 mm 4 m/s 762 mmHg 87%
02:00 +19°C° 0 mm 4 m/s 762 mmHg 86%
03:00 +20°C° 0 mm 4 m/s 762 mmHg 86%
04:00 +20°C° 0 mm 4 m/s 762 mmHg 85%
05:00 +21°C° 0 mm 4 m/s 762 mmHg 81%
06:00 +22°C° 0 mm 5 m/s 761 mmHg 77%
07:00 +23°C° 0 mm 5 m/s 761 mmHg 74%
08:00 +23°C° 0.1 mm 6 m/s 761 mmHg 78%
09:00 +22°C° 0.1 mm 7 m/s 761 mmHg 82%
10:00 +22°C° 0.1 mm 7 m/s 761 mmHg 86%
11:00 +21°C° 1.4 mm 8 m/s 761 mmHg 89%
12:00 +21°C° 1.4 mm 8 m/s 760 mmHg 93%
13:00 +20°C° 1.4 mm 8 m/s 760 mmHg 96%
14:00 +21°C° 0.6 mm 8 m/s 760 mmHg 94%
15:00 +21°C° 0.6 mm 8 m/s 760 mmHg 91%
16:00 +22°C° 0.6 mm 9 m/s 759 mmHg 89%
17:00 +22°C° 0.1 mm 9 m/s 759 mmHg 88%
18:00 +22°C° 0.1 mm 8 m/s 759 mmHg 88%
19:00 +22°C° 0.1 mm 8 m/s 759 mmHg 88%
20:00 +23°C° 0.1 mm 8 m/s 759 mmHg 89%
21:00 +23°C° 0.1 mm 7 m/s 759 mmHg 90%
22:00 +23°C° 0.1 mm 7 m/s 759 mmHg 92%
23:00 +23°C° 0.1 mm 7 m/s 759 mmHg 93%

26 Julho, Segunda-feira

Tempo Temperatura Precipitação Vento Pressão Humidade
00:00 +23°C° 0.1 mm 7 m/s 759 mmHg 93%
01:00 +23°C° 0.1 mm 6 m/s 759 mmHg 94%
02:00 +23°C° 0.2 mm 6 m/s 758 mmHg 94%
03:00 +23°C° 0.2 mm 6 m/s 758 mmHg 94%
04:00 +23°C° 0.2 mm 5 m/s 758 mmHg 94%
05:00 +23°C° 0.1 mm 5 m/s 758 mmHg 91%
06:00 +25°C° 0.1 mm 5 m/s 758 mmHg 89%
07:00 +25°C° 0.1 mm 4 m/s 758 mmHg 86%
08:00 +27°C° 0 mm 4 m/s 758 mmHg 76%
09:00 +29°C° 0 mm 4 m/s 758 mmHg 66%
10:00 +30°C° 0 mm 4 m/s 758 mmHg 55%
11:00 +32°C° 0 mm 4 m/s 758 mmHg 51%
12:00 +33°C° 0 mm 4 m/s 758 mmHg 47%
13:00 +34°C° 0 mm 4 m/s 757 mmHg 43%
14:00 +33°C° 0 mm 4 m/s 757 mmHg 43%
15:00 +33°C° 0 mm 4 m/s 757 mmHg 43%
16:00 +33°C° 0 mm 4 m/s 757 mmHg 43%
17:00 +30°C° 0 mm 4 m/s 758 mmHg 55%
18:00 +28°C° 0 mm 4 m/s 758 mmHg 67%
19:00 +25°C° 0 mm 4 m/s 758 mmHg 78%
20:00 +25°C° 0 mm 4 m/s 758 mmHg 75%
21:00 +25°C° 0 mm 4 m/s 759 mmHg 72%
22:00 +23°C° 0 mm 4 m/s 759 mmHg 69%
23:00 +23°C° 0 mm 4 m/s 759 mmHg 70%

27 Julho, Terça-feira

Tempo Temperatura Precipitação Vento Pressão Humidade
00:00 +24°C° 0 mm 3 m/s 759 mmHg 71%
01:00 +22°C° 0 mm 3 m/s 759 mmHg 72%
02:00 +22°C° 0 mm 3 m/s 759 mmHg 73%
03:00 +22°C° 0 mm 3 m/s 759 mmHg 74%
04:00 +21°C° 0 mm 3 m/s 759 mmHg 75%
05:00 +24°C° 0 mm 3 m/s 759 mmHg 70%
06:00 +25°C° 0 mm 3 m/s 760 mmHg 66%
07:00 +27°C° 0 mm 3 m/s 760 mmHg 61%
08:00 +29°C° 0 mm 2 m/s 760 mmHg 52%
09:00 +31°C° 0 mm 2 m/s 760 mmHg 44%
10:00 +34°C° 0 mm 2 m/s 759 mmHg 35%
11:00 +34°C° 0 mm 3 m/s 759 mmHg 35%
12:00 +34°C° 0 mm 4 m/s 759 mmHg 36%
13:00 +34°C° 0 mm 4 m/s 759 mmHg 36%
14:00 +33°C° 0 mm 5 m/s 759 mmHg 38%
15:00 +33°C° 0 mm 5 m/s 759 mmHg 41%
16:00 +32°C° 0 mm 5 m/s 759 mmHg 44%
17:00 +30°C° 0 mm 5 m/s 759 mmHg 53%
18:00 +28°C° 0 mm 4 m/s 759 mmHg 63%
19:00 +26°C° 0 mm 3 m/s 759 mmHg 72%
20:00 +25°C° 0.3 mm 3 m/s 760 mmHg 79%
21:00 +23°C° 0.3 mm 2 m/s 760 mmHg 86%
22:00 +21°C° 0.3 mm 2 m/s 760 mmHg 93%
23:00 +21°C° 0.7 mm 2 m/s 760 mmHg 93%

28 Julho, Quarta-feira

Tempo Temperatura Precipitação Vento Pressão Humidade
00:00 +20°C° 0.7 mm 2 m/s 760 mmHg 93%
01:00 +21°C° 0.7 mm 1 m/s 760 mmHg 94%
02:00 +21°C° 0.7 mm 1 m/s 759 mmHg 93%
03:00 +21°C° 0.7 mm 1 m/s 759 mmHg 93%
04:00 +21°C° 0.7 mm 1 m/s 759 mmHg 93%
05:00 +21°C° 0.5 mm 2 m/s 759 mmHg 91%
06:00 +23°C° 0.5 mm 2 m/s 759 mmHg 89%
07:00 +24°C° 0.5 mm 2 m/s 759 mmHg 87%
08:00 +24°C° 0.2 mm 3 m/s 759 mmHg 88%
09:00 +23°C° 0.2 mm 4 m/s 759 mmHg 89%
10:00 +23°C° 0.2 mm 5 m/s 760 mmHg 89%
11:00 +25°C° 1.3 mm 4 m/s 759 mmHg 79%
12:00 +27°C° 1.3 mm 4 m/s 758 mmHg 68%
13:00 +28°C° 1.3 mm 3 m/s 758 mmHg 57%
14:00 +27°C° 0.7 mm 4 m/s 757 mmHg 64%
15:00 +26°C° 0.7 mm 4 m/s 757 mmHg 71%
16:00 +26°C° 0.7 mm 5 m/s 757 mmHg 78%
17:00 +25°C° 1 mm 4 m/s 757 mmHg 84%
18:00 +24°C° 1 mm 3 m/s 756 mmHg 90%
19:00 +21°C° 1 mm 2 m/s 756 mmHg 96%
20:00 +21°C° 1.1 mm 2 m/s 756 mmHg 96%
21:00 +20°C° 1.1 mm 2 m/s 755 mmHg 97%
22:00 +20°C° 1.1 mm 2 m/s 755 mmHg 97%
23:00 +20°C° 0.3 mm 2 m/s 755 mmHg 97%
Mostrar mais